Weather in Slawno

Poland     54°21′30″N   16°40′29″E
temp.,
°C
wind,
m/s
gust,
m/s
humid.,
%
clouds,
%
prec.,
mm/h
press.,
hPa
HPBL,
m
29 june, wed
wed2923:00+13wsw22950 0.0 102122
02:00+13wsw22934 0.0 102128
05:00+12sw11954 0.0 102011
08:00+19n12684 0.0 1019425
11:00+23ne225049 0.0 10191598
14:00+25nne5340100 0.0 10181899
17:00+23nne5546100 0.0 1017909
20:00+19ne47605 0.0 1016346
30 june, thu
thu3023:00+15ene357690 0.0 1017103
02:00+14e2280100 0.0 101719
05:00+15ene3674100 0.0 1015130
08:00+18ene2566100 0.0 1016280
11:00+25ene354893 0.0 10151131
14:00+25ese4662100 0.4 10141099
17:00+24e467869 3.1 1012665
20:00+21ene589556 10.8 1011336
1 july, fri
fri123:00+18ene359998 5.2 1012138
02:00+19s239719 5.6 101165
05:00+18s23969 0.0 101252
08:00+23ssw23855 0.0 1012296
11:00+29ssw4654100 0.0 10121313
14:00+28n146149 0.3 1012974
17:00+22nw459468 12.1 1012329
20:00+19n389896 20.0 1015424
2 july, sat
sat223:00+18w4798100 1.8 1017360
02:00+16wnw6119697 1.8 1018618
05:00+16wnw51092100 0.1 1020722
08:00+17wnw587323 0.1 1022979
11:00+20wnw676451 0.1 10231326
14:00+21wnw56565 0.1 10241292
17:00+20wnw45510 0.0 10241046
20:00+17wnw23700 0.0 102376
3 july, sun
sun323:00+13wsw11800 0.0 102411
02:00+12ssw11750 0.0 102310
05:00+12ssw11720 0.0 102410
08:00+19sse11550 0.0 1023204
11:00+23nne11430 0.0 10231033
14:00+25nne32400 0.0 10221810
17:00+25ne43425 0.0 10211726
20:00+21ne47665 0.0 1020257